TimeEDT,TemperatureF,Dew PointF,Humidity,Sea Level PressureIn,VisibilityMPH,Wind Direction,Wind SpeedMPH,Gust SpeedMPH,PrecipitationIn,Events,Conditions,WindDirDegrees,DateUTC
12:52 AM,60.1,48.0,64,30.29,10.0,NE,6.9,-,N/A,,Overcast,40,2013-10-09 04:52:00
1:52 AM,60.1,46.9,62,30.29,10.0,NE,6.9,-,N/A,,Overcast,40,2013-10-09 05:52:00
2:52 AM,59.0,46.9,64,30.27,10.0,NNE,8.1,-,N/A,,Overcast,20,2013-10-09 06:52:00
3:52 AM,57.9,48.0,70,30.26,10.0,NNE,10.4,-,N/A,,Overcast,30,2013-10-09 07:52:00
4:52 AM,57.9,46.9,67,30.29,10.0,NE,6.9,-,N/A,,Overcast,40,2013-10-09 08:52:00
5:52 AM,57.9,46.0,65,30.27,10.0,NNE,10.4,-,N/A,,Overcast,30,2013-10-09 09:52:00
6:52 AM,57.9,46.0,65,30.28,10.0,NNE,9.2,-,N/A,,Overcast,30,2013-10-09 10:52:00
7:52 AM,57.9,46.0,65,30.30,10.0,NE,11.5,-,N/A,,Overcast,40,2013-10-09 11:52:00
8:52 AM,59.0,46.9,64,30.30,10.0,NE,13.8,-,N/A,,Overcast,40,2013-10-09 12:52:00
9:52 AM,60.1,48.0,64,30.32,10.0,NE,9.2,-,N/A,,Overcast,40,2013-10-09 13:52:00
10:52 AM,61.0,48.0,62,30.32,10.0,NNE,12.7,20.7,N/A,,Overcast,30,2013-10-09 14:52:00
11:52 AM,62.1,48.0,60,30.31,10.0,NE,13.8,20.7,N/A,,Overcast,40,2013-10-09 15:52:00
12:52 PM,63.0,48.9,60,30.30,10.0,NE,19.6,-,N/A,,Overcast,40,2013-10-09 16:52:00
1:22 PM,62.6,48.2,59,30.30,10.0,NE,15.0,21.9,0.00,Rain,Light Rain,50,2013-10-09 17:22:00
1:52 PM,62.1,48.9,62,30.30,10.0,NE,15.0,-,0.00,Rain,Light Rain,40,2013-10-09 17:52:00
2:52 PM,62.1,50.0,65,30.29,10.0,NE,15.0,-,0.00,,Overcast,50,2013-10-09 18:52:00
3:52 PM,62.1,50.0,65,30.27,10.0,NNE,15.0,23.0,0.00,Rain,Light Rain,20,2013-10-09 19:52:00
4:52 PM,60.1,51.1,72,30.27,10.0,NNE,15.0,-,0.01,Rain,Light Rain,20,2013-10-09 20:52:00
5:52 PM,59.0,51.1,75,30.26,10.0,NNE,13.8,-,0.02,Rain,Light Rain,20,2013-10-09 21:52:00
6:52 PM,57.9,52.0,81,30.27,10.0,NNE,11.5,-,0.05,Rain,Light Rain,20,2013-10-09 22:52:00
7:52 PM,57.9,51.1,78,30.26,10.0,NNE,13.8,-,0.02,Rain,Light Rain,20,2013-10-09 23:52:00
8:52 PM,57.0,52.0,83,30.25,10.0,North,13.8,-,0.01,Rain,Light Rain,360,2013-10-10 00:52:00
9:52 PM,57.9,52.0,81,30.25,10.0,North,13.8,-,0.00,,Overcast,10,2013-10-10 01:52:00
10:52 PM,57.0,51.1,81,30.24,10.0,North,17.3,-,0.00,,Overcast,10,2013-10-10 02:52:00
11:34 PM,57.2,51.8,82,30.22,10.0,NNE,12.7,-,0.02,,Overcast,20,2013-10-10 03:34:00
11:52 PM,57.0,52.0,83,30.22,10.0,NNE,12.7,-,0.02,,Overcast,20,2013-10-10 03:52:00